Location: Aranbee
(34.0885°N, 118.2342°W)
Time: 05:14:02
(UTC+00:00)

deb Explorer IX - Pass Details

Date: 03 December 2020
Orbit: 536 x 1104 km, 38.8° (Epoch: 17 January)

Event Time Altitude Azimuth Distance (km) Brightness Sun altitude
Rises 01:30:06 0° 282° (WNW) 3,603 ? -9.7°
Reaches altitude 10° 01:32:58 10° 287° (WNW) 2,567 ? -10.3°
Maximum altitude 01:38:54 54° 4° (N) 958 ? -11.4°
Enters shadow 01:42:50 17° 78° (ENE) 1,792 ? -12.2°
